Weather Service Report


103 
ASUS44 KLIX 222014
RWRLIX
NEW ORLEANS REGIONAL WEATHER ROUNDUP
NATIONAL WEATHER SERVICE NEW ORLEANS LA
300 PM CDT THU JUN 22 2017

NOTE: "FAIR" INDICATES FEW OR NO CLOUDS BELOW 12,000 FEET WITH NO
      SIGNIFICANT WEATHER AND/OR OBSTRUCTIONS TO VISIBILITY.
      SKY/WX - SKY CONDITION AND SIGNIFICANT WEATHER.
      TMP - AIR TEMPERATURE.     DP    - DEWPOINT TEMPERATURE.
      RH  - RELATIVE HUMIDITY.   PRES  - PRESSURE.
      HI  - HEAT INDEX.          WCI   - WIND CHILL INDEX.

*  THESE STATIONS ARE NOT NWS OR FAA STATIONS AND ARE NOT UNDER
   NWS QUALITY CONTROL. 

LAZ038-040-048-061>063-065>067-069-222100-
SOUTHEAST LOUISIANA
  
CITY           SKY/WX    TMP DP  RH WIND       PRES   REMARKS
N.O. INTL ARPT PTSUNNY   86  76  71 S22G31    29.81S HX  96           
N.O. LAKEFRONT PTSUNNY   87  76  69 S30G39    29.82S HX  97           
N.O. DOWNTOWN*   N/A     89  75  63 S20G29      N/A  HX  99           
RESERVE*       MOCLDY    90  75  61 S18G32    29.80S HX 100           
SLIDELL        PTSUNNY   89  77  67 S22G30    29.82S HX 101           
BATON ROUGE    LGT RAIN  84  75  74 S18G28    29.76S                  
BOOTHVILLE     LGT RAIN  80  76  87 S23G36    29.88S FOG              
BELLE CHASSE   PTSUNNY   88  79  74 S24G37    29.82F HX 103           
BOGALUSA*        N/A     89  72  56 SW20G31   29.82S HX  97           
GALLIANO*      MOCLDY    86  76  73 S26G33    29.84S HX  96           
NEW ROADS*       N/A     85  74  68 S17G32    29.74R                  
GONZALES*      HVY RAIN  79  77  92 S10       29.79F                  
HAMMOND*       DRIZZLE   81  73  78 SW8G17    29.81R                  
HOUMA*         PTSUNNY   86  79  79 S16G25    29.82S HX  99           
PORT FOURCHON* CLEAR     84  77  79 S20G32    29.84F HAZE             

$$

MSZ070-080>082-222100-
SOUTHERN MISSISSIPPI
  
CITY           SKY/WX    TMP DP  RH WIND       PRES   REMARKS
MCCOMB         PTSUNNY   84  74  71 S22G37    29.79S                  
GULFPORT       CLOUDY    85  79  82 S10G29    29.86S HX  98           
BILOXI         RAIN      81  79  94 SW17G28   29.86F FOG              
PASCAGOULA     CLOUDY    81  76  84 S20G28    29.89S                  
STENNIS ARPT*  RAIN      82  77  83 S21G32    29.85S                  

$$

COASTAL OBSERVATIONS
LAKE AND NEARSHORE STATIONS
  
STATION/POSITION TIME  TEMP    WIND        PRES    WAVE
                       AIR SEA DIR/SP/G            HT/PER
                 (UTC) (F)     (DEG/KT/KT) (MB)    (FT/S)
PASCAGOULA       1948   84     180/ 17/ 21 1011.9
WAVELAND YACHT   1948   83 80  190/ 15/ 24 1010.7
GRAND ISLE       1948   83 82  200/ 14/ 23 1011.1
SOUTHWEST PASS   1948   82     190/ 18/ 24   N/A
NEW CANAL        1948   86 81  200/ 18/ 28 1009.8
SHELL BEACH      1948   84 83  190/ 23/ 29 1010.5

OFFSHORE STATIONS
  
STATION/POSITION TIME  TEMP    WIND        PRES    WAVE
                       AIR SEA DIR/SP/G            HT/PER
                 (UTC) (F)     (DEG/KT/KT) (MB)    (FT/S)
64 S DAUPHIN ISL 1950   82 81  170/ 19/ 25 1013.4    9/ 9

$$

  

Return to Home page


Western Regional Climate Center, wrcc@dri.edu